Location: Boiro
(42.6475°N, 8.8834°W)
Time: 01:45:44
(UTC+01:00)

Explorer 7 - Pass Details

Date: 09 December 2021
Orbit: 483 x 674 km, 50.3° (Epoch: 23 January)

Event Time Altitude Azimuth Distance (km) Brightness Sun altitude
Rises 04:49:13 0° 222° (SW) 2,933 - -44.1°
Reaches altitude 10° 04:51:38 10° 217° (SW) 2,000 - -43.6°
Maximum altitude 04:56:05 51° 142° (SE) 765 - -42.8°
Drops below altitude 10° 05:00:17 10° 67° (ENE) 1,893 - -42.1°
Exits shadow 05:01:24 - 64° (ENE) 2,319 10.7 -41.8°
Sets 05:02:32 0° 62° (ENE) 2,760 11.1 -41.6°
